FW2527 Weather Reports


Display with metric or nautical units.
time (UTC)temp
F
wind
direction
speed
MPH
gust
MPH
rain 1hr
in
rain 24hr
in
rain mn
in
humidity
%
barometer
mb
20260510193006 52 0.0 0.0 0.00 0.00 0.00 72 1010.5
20260510192556 52 0.0 0.0 0.00 0.00 0.00 72 1010.6
20260510192044 52 0.0 0.0 0.00 0.00 0.00 72 1010.6
20260510191512 53 0.0 0.0 0.00 0.00 0.00 71 1010.5
20260510191001 53 0.0 0.0 0.00 0.00 0.00 71 1010.5
20260510190552 53 0.0 0.0 0.00 0.00 0.00 71 1010.5
20260510190015 54 0.0 0.0 0.00 0.00 0.00 71 1010.6
20260510185600 54 0.0 0.0 0.00 0.00 0.00 71 1010.6
20260510185049 54 0.0 0.0 0.00 0.00 0.00 71 1010.6
20260510184517 54 0.0 0.0 0.00 0.00 0.00 70 1010.6
20260510184004 54 0.0 0.0 0.00 0.00 0.00 70 1010.7
20260510183555 55 0.0 0.0 0.00 0.00 0.00 70 1010.7
20260510183021 55 0.0 0.0 0.00 0.00 0.00 70 1010.6
20260510182508 55 0.0 0.0 0.00 0.00 0.00 69 1010.5
20260510182059 56 0.0 0.0 0.00 0.00 0.00 69 1010.6
20260510181534 56 0.0 0.0 0.00 0.00 0.00 69 1010.7
20260510181016 56 0.0 0.0 0.00 0.00 0.00 69 1010.7
20260510180504 57 0.0 0.0 0.00 0.00 0.00 68 1010.8
20260510180022 57 0.0 0.0 0.00 0.00 0.00 68 1010.6
20260510175507 57 0.0 0.0 0.00 0.00 0.00 68 1010.7
20260510175058 57 0.0 0.0 0.00 0.00 0.00 68 1010.7
20260510174517 58 0.0 0.0 0.00 0.00 0.00 68 1010.6
20260510174005 58 0.0 0.0 0.00 0.00 0.00 68 1010.7
20260510173555 58 0.0 0.0 0.00 0.00 0.00 68 1010.6
20260510173014 58 0.0 0.0 0.00 0.00 0.00 67 1010.7
20260510172502 59 0.0 0.0 0.00 0.00 0.00 67 1010.6
20260510172053 59 0.0 0.0 0.00 0.00 0.00 66 1010.5
20260510171512 59 0.0 0.0 0.00 0.00 0.00 66 1010.5
20260510171106 59 0.0 0.0 0.00 0.00 0.00 66 1010.6
20260510170550 59 0.0 0.0 0.00 0.00 0.00 66 1010.5
20260510170005 59 0.0 0.0 0.00 0.00 0.00 65 1010.5
20260510165556 60 0.0 0.0 0.00 0.00 0.00 66 1010.6
20260510165042 60 0.0 0.0 0.00 0.00 0.00 65 1010.6
20260510164503 60 0.0 0.0 0.00 0.00 0.00 64 1010.7
20260510164052 60 0.0 0.0 0.00 0.00 0.00 64 1010.7
20260510163540 61 0.0 0.0 0.00 0.00 0.00 64 1010.6
20260510163009 61 0.0 0.0 0.00 0.00 0.00 63 1010.7
20260510162601 61 0.0 0.0 0.00 0.00 0.00 63 1010.7
20260510162047 61 0.0 0.0 0.00 0.00 0.00 63 1010.8
20260510161506 62 0.0 0.0 0.00 0.00 0.00 63 1011.0
20260510161056 62 0.0 0.0 0.00 0.00 0.00 62 1011.0
20260510160545 62 0.0 0.0 0.00 0.00 0.00 62 1011.0
20260510155555 62 0.0 0.0 0.00 0.00 0.00 62 1011.2
20260510155042 62 0.0 0.0 0.00 0.00 0.00 61 1011.2
20260510154509 63 0.0 0.0 0.00 0.00 0.00 60 1011.1
20260510154058 63 0.0 0.0 0.00 0.00 0.00 60 1011.1
20260510153547 63 0.0 0.0 0.00 0.00 0.00 60 1011.2
20260510153016 63 0.0 0.0 0.00 0.00 0.00 58 1011.4
20260510152555 63 0.0 0.0 0.00 0.00 0.00 59 1011.4
20260510152043 64 0.0 0.0 0.00 0.00 0.00 60 1011.4
20260510151515 64 0.0 0.0 0.00 0.00 0.00 59 1011.4
20260510151102 64 0.0 0.0 0.00 0.00 0.00 60 1011.5
20260510150552 64 0.0 0.0 0.00 0.00 0.00 58 1011.6
20260510150013 65 0.0 0.0 0.00 0.00 0.00 58 1011.5
20260510145601 64 0.0 0.0 0.00 0.00 0.00 58 1011.6
20260510145049 64 0.0 0.0 0.00 0.00 0.00 59 1011.6
20260510144523 64 0.0 0.0 0.00 0.00 0.00 57 1011.7
20260510144008 64 0.0 0.0 0.00 0.00 0.00 57 1011.7
20260510143556 64 0.0 0.0 0.00 0.00 0.00 56 1011.7
20260510143016 65 0.0 0.0 0.00 0.00 0.00 56 1011.8
20260510142503 65 0.0 0.0 0.00 0.00 0.00 56 1011.9
20260510142055 66 0.0 0.0 0.00 0.00 0.00 56 1011.9
20260510141513 66 0.0 0.0 0.00 0.00 0.00 57 1012.0
20260510141000 65 0.0 0.0 0.00 0.00 0.00 55 1012.1
20260510140551 66 0.0 0.0 0.00 0.00 0.00 56 1012.0
20260510140012 65 0.0 0.0 0.00 0.00 0.00 58 1012.1
20260510135601 65 0.0 0.0 0.00 0.00 0.00 56 1012.2
20260510135049 65 0.0 0.0 0.00 0.00 0.00 59 1012.1
20260510134508 64 0.0 0.0 0.00 0.00 0.00 57 1012.3
20260510134059 64 0.0 0.0 0.00 0.00 0.00 57 1012.3
20260510133546 64 0.0 0.0 0.00 0.00 0.00 57 1012.4
20260510133003 65 0.0 0.0 0.00 0.00 0.00 57 1012.4
20260510132554 65 0.0 0.0 0.00 0.00 0.00 54 1012.5
20260510132042 65 0.0 0.0 0.00 0.00 0.00 56 1012.5
20260510131602 65 0.0 0.0 0.00 0.00 0.00 58 1012.6
20260510131051 65 0.0 0.0 0.00 0.00 0.00 58 1012.6
20260510130539 66 0.0 0.0 0.00 0.00 0.00 57 1012.7
20260510130122 66 0.0 0.0 0.00 0.00 0.00 57 1012.8
20260510125548 66 0.0 0.0 0.00 0.00 0.00 56 1012.8
20260510125036 67 0.0 0.0 0.00 0.00 0.00 58 1012.9
20260510124603 65 0.0 0.0 0.00 0.00 0.00 61 1013.1
20260510124047 64 0.0 0.0 0.00 0.00 0.00 60 1013.0
20260510123534 64 0.0 0.0 0.00 0.00 0.00 60 1013.0
20260510123057 65 0.0 0.0 0.00 0.00 0.00 60 1013.2
20260510122542 64 0.0 0.0 0.00 0.00 0.00 62 1013.2
20260510122030 65 0.0 0.0 0.00 0.00 0.00 60 1013.2
20260510121552 66 0.0 0.0 0.00 0.00 0.00 61 1013.3
20260510121042 65 0.0 0.0 0.00 0.00 0.00 63 1013.3
20260510120528 65 0.0 0.0 0.00 0.00 0.00 63 1013.3
20260510120052 64 0.0 0.0 0.00 0.00 0.00 64 1013.3
20260510115539 64 0.0 0.0 0.00 0.00 0.00 63 1013.4
20260510115027 64 0.0 0.0 0.00 0.00 0.00 63 1013.5
20260510114549 64 0.0 0.0 0.00 0.00 0.00 65 1013.5
20260510114036 64 0.0 0.0 0.00 0.00 0.00 63 1013.6
20260510113522 63 0.0 0.0 0.00 0.00 0.00 66 1013.6
20260510113053 63 0.0 0.0 0.00 0.00 0.00 63 1013.7
20260510112533 63 0.0 0.0 0.00 0.00 0.00 67 1013.8
20260510112021 63 0.0 0.0 0.00 0.00 0.00 66 1013.7
20260510111543 63 0.0 0.0 0.00 0.00 0.00 67 1013.9
20260510111030 63 0.0 0.0 0.00 0.00 0.00 66 1013.9
20260510110518 63 0.0 0.0 0.00 0.00 0.00 66 1014.1
20260510110038 63 0.0 0.0 0.00 0.00 0.00 66 1014.0
20260510105521 64 0.0 0.0 0.00 0.00 0.00 64 1014.0
20260510105014 64 0.0 0.0 0.00 0.00 0.00 67 1014.1
20260510104530 63 0.0 0.0 0.00 0.00 0.00 67 1014.4
20260510104018 64 0.0 0.0 0.00 0.00 0.00 67 1014.3
20260510103506 62 0.0 0.0 0.00 0.00 0.00 68 1014.3
20260510103028 63 0.0 0.0 0.00 0.00 0.00 69 1014.3
20260510102518 62 0.0 0.0 0.00 0.00 0.00 68 1014.3
20260510102005 62 0.0 0.0 0.00 0.00 0.00 70 1014.5
20260510101536 62 0.0 0.0 0.00 0.00 0.00 71 1014.5
20260510101023 62 0.0 0.0 0.00 0.00 0.00 70 1014.5
20260510100512 62 0.0 0.0 0.00 0.00 0.00 68 1014.6
20260510100033 62 0.0 0.0 0.00 0.00 0.00 69 1014.6
20260510095522 62 0.0 0.0 0.00 0.00 0.00 70 1014.5
20260510095013 61 0.0 0.0 0.00 0.00 0.00 71 1014.6
20260510094529 61 0.0 0.0 0.00 0.00 0.00 70 1014.6
20260510094019 62 0.0 0.0 0.00 0.00 0.00 68 1014.6
20260510093509 63 0.0 0.0 0.00 0.00 0.00 69 1014.7
20260510093009 63 0.0 0.0 0.00 0.00 0.00 71 1014.7
20260510092601 61 0.0 0.0 0.00 0.00 0.00 71 1014.8
20260510092048 61 0.0 0.0 0.00 0.00 0.00 72 1014.7
20260510091522 61 0.0 0.0 0.00 0.00 0.00 72 1014.7
20260510091006 61 0.0 0.0 0.00 0.00 0.00 73 1014.8
20260510090555 60 0.0 0.0 0.00 0.00 0.00 72 1014.7
20260510090014 61 0.0 0.0 0.00 0.00 0.00 73 1014.7
20260510085502 60 0.0 0.0 0.00 0.00 0.00 74 1014.8
20260510085051 60 0.0 0.0 0.00 0.00 0.00 73 1014.8
20260510084512 60 0.0 0.0 0.00 0.00 0.00 73 1014.8
20260510084101 60 0.0 0.0 0.00 0.00 0.00 73 1014.8
20260510083549 60 0.0 0.0 0.00 0.00 0.00 73 1014.8
20260510083009 60 0.0 0.0 0.00 0.00 0.00 75 1014.8
20260510082558 59 0.0 0.0 0.00 0.00 0.00 76 1014.9
20260510082047 59 0.0 0.0 0.00 0.00 0.00 76 1014.9
20260510081505 59 0.0 0.0 0.00 0.00 0.00 77 1014.9
20260510081056 58 0.0 0.0 0.00 0.00 0.00 77 1015.0
20260510080546 58 0.0 0.0 0.00 0.00 0.00 78 1015.0
20260510080006 58 0.0 0.0 0.00 0.00 0.00 77 1014.9
20260510075559 58 0.0 0.0 0.00 0.00 0.00 77 1015.0
20260510075045 57 0.0 0.0 0.00 0.00 0.00 78 1014.9
20260510074504 57 0.0 0.0 0.00 0.00 0.00 79 1014.9
20260510074055 56 0.0 0.0 0.00 0.00 0.00 79 1014.9
20260510073541 56 0.0 0.0 0.00 0.00 0.00 80 1014.9
20260510073011 56 0.0 0.0 0.00 0.00 0.00 81 1014.9
20260510072600 55 0.0 0.0 0.00 0.00 0.00 81 1014.9
20260510072049 55 0.0 0.0 0.00 0.00 0.00 82 1015.0
20260510071509 55 0.0 0.0 0.00 0.00 0.00 82 1015.0
20260510071056 54 0.0 0.0 0.00 0.00 0.00 83 1015.0
20260510070545 54 0.0 0.0 0.00 0.00 0.00 84 1015.0
20260510070013 53 0.0 0.0 0.00 0.00 0.00 85 1015.0
20260510065603 53 0.0 0.0 0.00 0.00 0.00 85 1015.1
20260510065051 52 0.0 0.0 0.00 0.00 0.00 86 1015.0
20260510064529 52 0.0 0.0 0.00 0.00 0.00 87 1015.1
20260510064101 51 0.0 0.0 0.00 0.00 0.00 88 1015.1
20260510063549 50 0.0 0.0 0.00 0.00 0.00 88 1015.0
20260510063022 50 0.0 0.0 0.00 0.00 0.00 88 1015.0
20260510062506 49 0.0 0.0 0.00 0.00 0.00 89 1015.0
20260510062056 49 0.0 0.0 0.00 0.00 0.00 89 1015.0
20260510061515 49 0.0 0.0 0.00 0.00 0.00 89 1015.0
20260510061003 48 0.0 0.0 0.00 0.00 0.00 90 1015.0
20260510060556 48 0.0 0.0 0.00 0.00 0.00 90 1015.0
20260510060014 48 0.0 0.0 0.00 0.00 0.00 90 1015.0
20260510055602 48 0.0 0.0 0.00 0.00 0.00 90 1014.9
20260510055049 47 0.0 0.0 0.00 0.00 0.00 90 1014.9
20260510054511 47 0.0 0.0 0.00 0.00 0.00 91 1014.9
20260510054101 47 0.0 0.0 0.00 0.00 0.00 91 1015.0
20260510053548 47 0.0 0.0 0.00 0.00 0.00 91 1015.0
20260510053020 46 0.0 0.0 0.00 0.00 0.00 91 1015.0
20260510052558 46 0.0 0.0 0.00 0.00 0.00 91 1014.9
20260510052046 46 0.0 0.0 0.00 0.00 0.00 91 1014.9
20260510051514 46 0.0 0.0 0.00 0.00 0.00 91 1014.9
20260510051005 46 0.0 0.0 0.00 0.00 0.00 91 1015.0
20260510050552 46 0.0 0.0 0.00 0.00 0.00 91 1014.9
20260510050009 45 0.0 0.0 0.00 0.00 0.00 91 1014.8
20260510045601 45 0.0 0.0 0.00 0.00 0.00 91 1015.0
20260510045047 45 0.0 0.0 0.00 0.00 0.00 91 1015.0
20260510044517 45 0.0 0.0 0.00 0.00 0.00 91 1014.8
20260510044004 45 0.0 0.0 0.00 0.00 0.00 91 1014.9
20260510043555 45 0.0 0.0 0.00 0.00 0.00 91 1014.9
20260510043014 45 0.0 0.0 0.00 0.00 0.00 90 1014.9
20260510042502 45 0.0 0.0 0.00 0.00 0.00 90 1015.0
20260510042053 44 0.0 0.0 0.00 0.00 0.00 90 1015.0
20260510041514 45 0.0 0.0 0.00 0.00 0.00 90 1015.1
20260510041001 45 0.0 0.0 0.00 0.00 0.00 90 1015.2
20260510040551 45 0.0 0.0 0.00 0.00 0.00 90 1015.0
20260510040009 45 0.0 0.0 0.00 0.00 0.00 90 1015.1
20260510035559 45 0.0 0.0 0.00 0.00 0.00 90 1015.2
20260510035048 45 0.0 0.0 0.00 0.00 0.00 90 1015.2
20260510034507 45 0.0 0.0 0.00 0.00 0.00 90 1015.2
20260510034057 45 0.0 0.0 0.00 0.00 0.00 90 1015.3
20260510033544 45 0.0 0.0 0.00 0.00 0.00 90 1015.1
20260510033014 45 0.0 0.0 0.00 0.00 0.00 90 1015.2
20260510032501 45 0.0 0.0 0.00 0.00 0.00 90 1015.2
20260510032053 45 0.0 0.0 0.00 0.00 0.00 90 1015.3
20260510031521 45 0.0 0.0 0.00 0.00 0.00 90 1015.2
20260510031106 45 0.0 0.0 0.00 0.00 0.00 90 1015.4
20260510030551 45 0.0 0.0 0.00 0.00 0.00 90 1015.3
20260510030019 45 0.0 0.0 0.00 0.00 0.00 90 1015.3
20260510025507 45 0.0 0.0 0.00 0.00 0.00 89 1015.3
20260510025058 45 0.0 0.0 0.00 0.00 0.00 89 1015.3
20260510024517 45 0.0 0.0 0.00 0.00 0.00 89 1015.4
20260510024005 45 0.0 0.0 0.00 0.00 0.00 89 1015.4
20260510023555 45 0.0 0.0 0.00 0.00 0.00 89 1015.4
20260510023014 45 0.0 0.0 0.00 0.00 0.00 89 1015.4
20260510022503 45 0.0 0.0 0.00 0.00 0.00 89 1015.4
20260510022054 45 0.0 0.0 0.00 0.00 0.00 89 1015.5
20260510021528 45 0.0 0.0 0.00 0.00 0.00 89 1015.4
20260510021009 45 0.0 0.0 0.00 0.00 0.00 89 1015.4
20260510020600 45 0.0 0.0 0.00 0.00 0.00 89 1015.5
20260510020024 45 0.0 0.0 0.00 0.00 0.00 88 1015.4
20260510015505 45 0.0 0.0 0.00 0.00 0.00 88 1015.5
20260510015055 45 0.0 0.0 0.00 0.00 0.00 89 1015.4
20260510014514 45 0.0 0.0 0.00 0.00 0.00 88 1015.6
20260510014003 45 0.0 0.0 0.00 0.00 0.00 88 1015.6
20260510013556 45 0.0 0.0 0.00 0.00 0.00 88 1015.7
20260510013012 45 0.0 0.0 0.00 0.00 0.00 88 1015.6
20260510012604 46 0.0 0.0 0.00 0.00 0.00 88 1015.7
20260510012050 46 0.0 0.0 0.00 0.00 0.00 88 1015.6
20260510011510 46 0.0 0.0 0.00 0.00 0.00 88 1015.6
20260510011102 46 0.0 0.0 0.00 0.00 0.00 88 1015.6
20260510010548 46 0.0 0.0 0.00 0.00 0.00 88 1015.6
20260510010009 46 0.0 0.0 0.00 0.00 0.00 88 1015.5
20260510005559 46 0.0 0.0 0.00 0.00 0.00 87 1015.6
20260510005046 46 0.0 0.0 0.00 0.00 0.00 87 1015.6
20260510004506 46 0.0 0.0 0.00 0.00 0.00 87 1015.6
20260510004056 46 0.0 0.0 0.00 0.00 0.00 87 1015.6
20260510003545 47 0.0 0.0 0.00 0.00 0.00 87 1015.7
20260510003013 47 0.0 0.0 0.00 0.00 0.00 87 1015.8
20260510002501 47 0.0 0.0 0.00 0.00 0.00 86 1015.8
20260510002051 47 0.0 0.0 0.00 0.00 0.00 86 1015.8
20260510001510 47 0.0 0.0 0.00 0.00 0.00 86 1015.7
20260510001102 47 0.0 0.0 0.00 0.00 0.00 86 1015.7
20260510000552 47 0.0 0.0 0.00 0.00 0.00 86 1015.7
20260510000020 47 0.0 0.0 0.00 0.00 0.00 85 1015.9
20260509235505 47 0.0 0.0 0.00 0.00 0.00 85 1015.9
20260509235055 48 0.0 0.0 0.00 0.00 0.00 85 1016.0
20260509234515 48 0.0 0.0 0.00 0.00 0.00 85 1016.0
20260509234002 48 0.0 0.0 0.00 0.00 0.00 85 1016.1
20260509233553 48 0.0 0.0 0.00 0.00 0.00 85 1016.1
20260509233013 48 0.0 0.0 0.00 0.00 0.00 85 1016.1
20260509232603 48 0.0 0.0 0.00 0.00 0.00 85 1016.1
20260509232051 49 0.0 0.0 0.00 0.00 0.00 85 1016.0
20260509231510 49 0.0 0.0 0.00 0.00 0.00 84 1016.2
20260509231059 49 0.0 0.0 0.00 0.00 0.00 84 1016.2
20260509230548 49 0.0 0.0 0.00 0.00 0.00 84 1016.2
20260509230016 49 0.0 0.0 0.00 0.00 0.00 84 1016.2
20260509225505 49 0.0 0.0 0.00 0.00 0.00 84 1016.2
20260509225055 49 0.0 0.0 0.00 0.00 0.00 84 1016.2
20260509224514 49 0.0 0.0 0.00 0.00 0.00 83 1016.2
20260509224002 49 0.0 0.0 0.00 0.00 0.00 83 1016.3
20260509223553 50 0.0 0.0 0.00 0.00 0.00 83 1016.3
20260509223012 50 0.0 0.0 0.00 0.00 0.00 83 1016.3
20260509222603 50 0.0 0.0 0.00 0.00 0.00 82 1016.3
20260509222050 50 0.0 0.0 0.00 0.00 0.00 82 1016.4
20260509221519 50 0.0 0.0 0.00 0.00 0.00 82 1016.4
20260509221007 50 0.0 0.0 0.00 0.00 0.00 82 1016.4
20260509220555 50 0.0 0.0 0.00 0.00 0.00 81 1016.4
20260509220016 50 0.0 0.0 0.00 0.00 0.00 81 1016.4
20260509215506 50 0.0 0.0 0.00 0.00 0.00 81 1016.4
20260509215058 50 0.0 0.0 0.00 0.00 0.00 80 1016.4
20260509214522 51 0.0 0.0 0.00 0.00 0.00 80 1016.4
20260509214010 51 0.0 0.0 0.00 0.00 0.00 80 1016.4
20260509213601 51 0.0 0.0 0.00 0.00 0.00 80 1016.4
20260509213019 51 0.0 0.0 0.00 0.00 0.00 80 1016.4
20260509212506 51 0.0 0.0 0.00 0.00 0.00 80 1016.3
20260509212056 51 0.0 0.0 0.00 0.00 0.00 79 1016.4
20260509211519 51 0.0 0.0 0.00 0.00 0.00 79 1016.4
20260509211004 52 0.0 0.0 0.00 0.00 0.00 79 1016.4
20260509210555 52 0.0 0.0 0.00 0.00 0.00 79 1016.4
20260509210014 52 0.0 0.0 0.00 0.00 0.00 79 1016.4
20260509205501 52 0.0 0.0 0.00 0.00 0.00 78 1016.5
20260509205052 52 0.0 0.0 0.00 0.00 0.00 78 1016.5
20260509204520 53 0.0 0.0 0.00 0.00 0.00 77 1016.6
20260509204009 53 0.0 0.0 0.00 0.00 0.00 76 1016.6
20260509203601 53 0.0 0.0 0.00 0.00 0.00 76 1016.6
20260509203029 53 0.0 0.0 0.00 0.00 0.00 75 1016.6
20260509202506 54 0.0 0.0 0.00 0.00 0.00 74 1016.6
20260509202058 54 0.0 0.0 0.00 0.00 0.00 74 1016.6
20260509201515 54 0.0 0.0 0.00 0.00 0.00 73 1016.7
20260509201004 54 0.0 0.0 0.00 0.00 0.00 72 1016.6
20260509200554 55 0.0 0.0 0.00 0.00 0.00 72 1016.7
20260509200026 55 0.0 0.0 0.00 0.00 0.00 72 1016.7
20260509195511 55 0.0 0.0 0.00 0.00 0.00 71 1016.8
20260509195102 56 0.0 0.0 0.00 0.00 0.00 71 1016.6
20260509194523 56 0.0 0.0 0.00 0.00 0.00 70 1016.6
20260509194005 56 0.0 0.0 0.00 0.00 0.00 69 1016.6
20260509193555 57 0.0 0.0 0.00 0.00 0.00 68 1016.6